Tracking 30107 objects as of 25-Jan-2025
HD Live streaming from Space Station
objects crossing your sky now

ARIANE 44L DEB

Track ARIANE 44L DEB now!


NORAD ID: 28573
Int'l Code: 1991-003N
Perigee: 676.0 km
Apogee: 30,733.3 km
Inclination: 7.3 °
Period: 544.0 minutes
Semi major axis: 22075 km
RCS: 0.274 m2 (medium)
Launch date: January 15, 1991
Source: France (FR)
Launch site: FRENCH GUIANA (FRGUI)

Note: This is SATELLITE DEBRIS
Your satellite tracking list
Your tracking list is empty




NASA's NSSDC Master Catalog

Two Line Element Set (TLE):
1 28573U 91003N   25019.17288778 -.00000099  00000-0  73177-4 0  9991
2 28573   7.2537  49.4706 6807773 102.8437 352.8443  2.64687000207285
Source of the keplerian elements: AFSPC